Weather in Lianyungang

China     34°36′04″N   119°10′09″E
temp.,
°C
wind,
m/s
gust,
m/s
humid.,
%
clouds,
%
prec.,
mm/h
press.,
hPa
HPBL,
m
9 march, tue
tue923:00+6ese2477100 0.0 1027174
02:00+6ene1279100 0.0 102745
05:00+5e2280100 0.0 102631
08:00+7ese227399 0.0 1027186
11:00+13se115380 0.0 1028761
14:00+16n113967 0.0 10261210
17:00+13e44490 0.0 1027427
20:00+9ese35640 0.0 1028107
10 march, wed
wed1023:00+7se22690 0.0 102946
02:00+6sse12870 0.0 102823
05:00+6wsw11920 0.0 102922
08:00+8sse01820 0.0 103099
11:00+14ese34500 0.0 1029847
14:00+17sse45340 0.0 10271322
17:00+16se454022 0.0 1025797
20:00+9ese495548 0.0 1027250
11 march, thu
thu1123:00+7ese376073 0.0 1027209
02:00+7ese376386 0.0 1026251
05:00+7e2571100 0.0 1025201
08:00+8ne1180100 0.6 1027141
11:00+9ese4571100 0.3 1027710
14:00+9ene3578100 0.4 1025427
17:00+9ene3475100 0.0 1024393
20:00+7ene3483100 0.0 1025125
12 march, fri
fri1223:00+6ne2287100 0.0 102624
02:00+6nne229067 0.0 102527
05:00+5nne22900 0.0 102523
08:00+8nne12810 0.0 1026153
11:00+14ene336311 0.0 1027976
14:00+14e456854 0.0 1025796
17:00+13ene457272 0.1 1024610
20:00+10ese478185 0.1 1025287
13 march, sat
sat1323:00+8e3590100 0.0 1025157
02:00+7se2290100 0.0 102442
05:00+6sse129367 0.0 102428
08:00+8e128233 0.0 1025136
11:00+15e21600 0.0 1024740
14:00+18ese22493 0.0 10211392
17:00+14ene57648 0.0 1020364
20:00+10ese48684 0.0 1021231